ONEWEB-0056, 45159

Orbit data source: Space-Track

ONEWEB-0056, 45159 is a payload satellite owned by One Web (UK) in LEO that was launched on Thu, 06 Feb 2020 UTC via a SOYUZ-2-1B launch vehicle from the Tyuratam Missile And Space Complex (TTMTR). Payload-class satellites include a variety of spacecraft equipped with specific instruments for various scientific and technological missions. These include communications satellites like Starlink; space stations such as the ISS; scientific satellites like the Hubble; Earth observation satellites from companies like Planet Labs, Umbra, and HawkEye 360; GPS; miniature CubeSats for education and research; and military/defense satellites.

Loading next visibility...
Identifier
45159, 2020-008AE
Orbit
LEO
Last TLE update
13 hours ago
Origin
Manufacturer
One Web
Mission
Operational Commercial Communications
Bus & Motor
ARROW, Unknown motor
Mass
148 kg wet, ~140 kg dry
Launch date (UTC)
2020-02-06 (5 years ago)
Launch vehicle
SOYUZ-2-1B
Launch site
Tyuratam Missile And Space Complex (TTMTR)
Object type
Payload
Rocket body
Debris
Shape & HBR
Trap Box + 2 Pan, 5 m
Radar Cross Section
2.957 m², Large (>1 m²)

Expand to show TLE details & history

TLE from 13 hours ago
0 ONEWEB-0056
1 45159U 20008AE  25187.31687001  .00000080  00000-0  19178-3 0  9990
2 45159  87.8823 105.2404 0001896  75.8041 284.3297 13.10372836262882
Epoch: 2025-07-06T07:36Z
TLE epoch observation values (Epoch: 2025-07-06T07:36:17.568Z)
Latitude
-0.00003°
Longitude
66.6249°
Altitude
1,224.248 km
Speed
7.242 km/s
True Right ascension
07h 00m 57s
True Declination
0° 00' 00"
Sunlit
Object was in daylight at epoch
Visualization orbit readout
Latitude
-51.75128°
Longitude
63.84559°
Altitude
1,242.691 km
Speed
7.232 km/s
Apparent Right ascension
01h 06m 41s
Apparent Declination
-80° 28' 54"
Sunlit
Object is in daylight
Visualization observer readout
Local Sidereal Time
08:09:57
Azimuth
192.336° SSW
Elevation
-41.866°
Doppler factor
1
Orbital elements
Apogee altitude
1,220.277 km
Perigee altitude
1,217.397 km
Semi-major axis
7,596.974 km
Eccentricity
0.00019
Inclination
87.8823°
RAAN
105.2404°
Arg. of periapsis
75.8041°
True anomaly
Unknown
Mean anomaly
284.3297°
Eccentric anomaly
Unknown
Mean motion
3.2778 °/min
Orbital period
109.83 mins
BSTAR
0.00019178
Loading maneuver chart data...
Loading SW <> Apogee altitude chart data...
Loading historical data...
Loading historical data...
Loading historical data...
Loading historical data...
Loading historical data...
Loading historical data...
Loading historical data...

ONEWEB-0056 Visibility forecast

Observer location: undefined°, undefined°

Span
Click to sort rows by Start time (UTC) header in descending order
Start Az.
Max El. time (UTC)
Max El. Az.
Max El.
End time (UTC)
End Az.
9 mins2025-07-06 20:34:11.419Z241.837° WSW2025-07-06 20:39:11.419Z288.896° WNW20.053°2025-07-06 20:43:11.419Z325.84° NNW
12 mins2025-07-07 06:13:11.419Z14.267° NNE2025-07-07 06:18:11.419Z78.845° E39.035°2025-07-07 06:25:11.419Z160.895° S
10 mins2025-07-07 08:03:11.419Z330.08° NNW2025-07-07 08:08:11.419Z279.338° WNW24.283°2025-07-07 08:13:11.419Z232.6° WSW
12 mins2025-07-07 18:32:11.419Z159.624° S2025-07-07 18:37:11.419Z102.855° ESE40.89°2025-07-07 18:44:11.419Z8.862° NNE
|